[[{"header":{"parameterUnit":"m.s-1","parameterCategory":2,"la1":30.2991,"la2":30.254,"lo1":-89.0895,"lo2":-89.0444,"dy":0.0017,"dx":0.0017,"nx":28,"ny":28,"refTime":"2023-09-28T03:00:00:Z","depth":"0","parameterNumber":2,"parameterNumberName":"U-component_of_CURRENTS"},"data":[0,0,0,0,0,0,0,0,0,0,0,0,0,0,0,0,0,0,0,0,0,0,0,0,0,0,0,0,0,0,0,0,0,0,0,0,0,0,0,0,0,0,0,0,0,0,0,0,0,0,0,0,0,0,0,0,0,0,0.1681,0.1681,0,0.1691,0.1692,0.1692,0.1693,0.1693,0.1693,0.1693,0.1666,0.1665,0.1665,0,0,0,0,0,0,0,0,0,0,0,0,0,0.1692,0.1692,0.1681,0.1681,0.1682,0.1691,0.1692,0.1692,0.1693,0.1693,0.1693,0.1693,0.1666,0.1665,0.1665,0,0,0,0,0,0,0,0,0,0,0,0,0,0.1693,0.1692,0.1681,0.1683,0.1684,0.1691,0.1692,0.1692,0.1693,0.1693,0.1693,0.1693,0.1666,0.1665,0.1664,0.1661,0,0,0.1662,0.1661,0,0,0,0,0,0,0,0,0.1693,0.1693,0.1683,0.1683,0.1684,0.1691,0.1686,0.168,0.1693,0.1689,0.1693,0.1692,0.1671,0.167,0.1672,0.166,0.1659,0.1662,0.1661,0.1661,0.166,0,0,0,0,0,0,0,0.1693,0.1693,0.1685,0.1683,0.1684,0.1694,0.1694,0.1685,0.168,0.169,0.169,0.1691,0.1671,0.1673,0.1671,0.1659,0.1662,0.1661,0.166,0.166,0.1643,0.1644,0,0,0,0,0,0,0.1691,0.1692,0.1685,0.1685,0.1688,0.1694,0.1694,0.1689,0.1681,0.168,0.1691,0.1691,0.1675,0.1673,0.167,0.1668,0.1661,0.166,0.1659,0.1643,0.1643,0.1644,0,0,0,0,0,0,0.1691,0.169,0.1684,0.169,0.169,0.1694,0.1688,0.1689,0.1694,0.1683,0.1681,0.1696,0.1675,0.1672,0.1665,0.1666,0.1659,0.1658,0.1643,0.1643,0.1644,0.1661,0,0,0,0,0,0,0.1691,0.1689,0.1686,0.1689,0.1689,0.1691,0.1688,0.1689,0.1695,0.1695,0.1686,0.1683,0.1674,0.1667,0.1664,0.1665,0.1658,0.1643,0.1643,0.1643,0.166,0.1662,0.1663,0,0,0,0,0,0.1691,0.1686,0.1686,0.1685,0.1684,0.1692,0.1693,0.1695,0.1695,0.1699,0.1692,0.1684,0.1666,0.1666,0.1663,0.1664,0.1643,0.1643,0.1643,0.1659,0.1661,0.1663,0,0,0,0,0,0,0.1681,0.1686,0.1685,0.1679,0.1687,0.1692,0.1694,0.1698,0.1697,0.1695,0.1685,0.1682,0.1678,0.1668,0.1668,0.166,0.1653,0.1653,0.1666,0.1668,0.1669,0.1665,0.1657,0,0,0,0,0,0.1679,0.1679,0.1685,0.1679,0.1684,0.1691,0.1694,0.1697,0.1697,0.1697,0.1692,0.1684,0.1677,0.1671,0.1664,0.1658,0.1652,0.1657,0.1658,0.1659,0.1654,0.1635,0.1634,0.1645,0.1645,0.1645,0,0,0.167,0.1674,0.1672,0.1678,0.1683,0.169,0.1692,0.1698,0.1702,0.1693,0.1694,0.169,0.1677,0.1673,0.167,0.1664,0.1659,0.166,0.1661,0.1655,0.1635,0.1634,0.1633,0.1645,0.1645,0.1645,0,0,0.1662,0.166,0.1663,0.1671,0.1682,0.1689,0.1692,0.1702,0.1704,0.1707,0.1701,0.1697,0.1689,0.168,0.1674,0.1678,0.1669,0.1678,0.1678,0.166,0.1658,0.1657,0.1674,0.1674,0.1675,0.1675,0.1675,0,0.1653,0.1656,0.1665,0.1672,0.1679,0.1689,0.1696,0.17,0.1706,0.1704,0.1708,0.1693,0.1691,0.1676,0.1683,0.1681,0.1679,0.1673,0.1661,0.1659,0.1658,0.1675,0.1675,0.1676,0.1676,0.1676,0.1676,0,0.1653,0.1655,0.1657,0.1671,0.1679,0.1686,0.1696,0.1702,0.1708,0.1709,0.1702,0.1697,0.1688,0.1689,0.169,0.1677,0.1685,0.1668,0.1656,0.1658,0.1677,0.1676,0.1677,0.1677,0.1677,0.1677,0,0,0.1633,0.1655,0.1654,0.1659,0.1681,0.1683,0.1693,0.1702,0.1697,0.1702,0.1697,0.1694,0.1691,0.1684,0.168,0.1667,0.1674,0.1666,0.1665,0.1684,0.1659,0.1746,0.1754,0.1651,0.165,0.165,0.1686,0,0.1632,0.1646,0.1659,0.1664,0.1671,0.1685,0.1687,0.1692,0.17,0.1697,0.1691,0.1686,0.1687,0.1686,0.1673,0.1676,0.1669,0.1668,0.1654,0.1654,0.173,0.1754,0.17,0.1734,0.1686,0.1686,0.1685,0,0.1629,0.1641,0.1652,0.1658,0.1661,0.1662,0.1668,0.1673,0.1675,0.1678,0.1673,0.1676,0.1677,0.167,0.1664,0.1663,0.1663,0.1659,0.166,0.1731,0.1739,0.1719,0.1735,0.1643,0.1685,0.1685,0.1685,0,0.1614,0.1628,0.1638,0.1642,0.1655,0.1654,0.1659,0.1663,0.1668,0.1669,0.1674,0.1667,0.1673,0.166,0.1697,0.1669,0.1699,0.1656,0.173,0.1737,0.1683,0.1688,0.1605,0.1635,0.1635,0.1635,0.1635,0,0.1609,0.1611,0.1626,0.1627,0.1626,0.1636,0.1633,0.1636,0.1644,0.1652,0.166,0.1681,0.1667,0.1699,0.1702,0.1752,0.1708,0.1742,0.175,0.1694,0.1699,0.1611,0.1564,0.1636,0.1636,0.1636,0.1635,0,0.159,0.1606,0.1608,0.1616,0.1619,0.1614,0.1628,0.1624,0.1633,0.1648,0.1655,0.1692,0.1751,0.177,0.1778,0.1777,0.1747,0.1825,0.1794,0.1798,0.1774,0.1732,0.1622,0.1573,0.1889,0.1892,0.1894,0,0.1579,0.1582,0.1594,0.1595,0.1599,0.1601,0.1603,0.1617,0.1623,0.1672,0.168,0.1753,0.1814,0.1895,0.1927,0.1967,0.1839,0.1915,0.1847,0.1783,0.1739,0.1635,0.1591,0.1783,0.1784,0.1784,0.1785,0,0.1553,0.1561,0.1566,0.1571,0.1573,0.1582,0.159,0.1597,0.1622,0.1644,0.1709,0.1771,0.1892,0.1936,0.2016,0.2023,0.1807,0.1935,0.1836,0.1637,0.1544,0.1497,0.1777,0.1791,0.1791,0.179,0.179,0.179,0.1524,0.1523,0.1531,0.1534,0.1542,0.155,0.1542,0.1567,0.1586,0.1613,0.1717,0.1778,0.1863,0.1992,0.2,0.1942,0.1901,0.183,0.1784,0.1685,0.1627,0.1972,0.2023,0.2024,0.2024,0.2025,0.2025,0,0.1472,0.1485,0.1492,0.149,0.1484,0.1508,0.1518,0.1504,0.1516,0.1592,0.1657,0.1738,0.1787,0.1822,0.1831,0.1762,0.1642,0.168,0.1455,0.1421,0.169,0.1677,0.1695,0.1695,0.1695,0.1695,0.1695,0.1695,0.144,0.1434,0.1447,0.1427,0.143,0.1405,0.1404,0.1403,0.1434,0.1469,0.1506,0.1578,0.1616,0.1609,0.1539,0.1511,0.1334,0.1304,0.1271,0.1397,0.1404,0.1411,0.1385,0.1341,0.1341,0.0926,0.0923,0.092]},{"header":{"parameterUnit":"m.s-1","parameterCategory":2,"la1":30.2991,"la2":30.254,"lo1":-89.0895,"lo2":-89.0444,"dy":0.0017,"dx":0.0017,"nx":28,"ny":28,"refTime":"2023-09-28T03:00:00:Z","depth":"0","parameterNumber":3,"parameterNumberName":"V-component_of_CURRENTS"},"data":[0,0,0,0,0,0,0,0,0,0,0,0,0,0,0,0,0,0,0,0,0,0,0,0,0,0,0,0,0,0,0,0,0,0,0,0,0,0,0,0,0,0,0,0,0,0,0,0,0,0,0,0,0,0,0,0,0,0,-0.0068,-0.0068,0,-0.0059,-0.0059,-0.0059,-0.0054,-0.0054,-0.0054,-0.0054,-0.01,-0.0101,-0.0102,0,0,0,0,0,0,0,0,0,0,0,0,0,-0.0094,-0.0094,-0.0068,-0.0068,-0.0067,-0.0059,-0.0059,-0.0059,-0.0054,-0.0054,-0.0054,-0.0053,-0.0099,-0.0101,-0.0102,0,0,0,0,0,0,0,0,0,0,0,0,0,-0.0085,-0.0093,-0.0068,-0.0063,-0.0062,-0.0059,-0.0059,-0.0059,-0.0054,-0.0054,-0.0054,-0.0053,-0.0099,-0.0101,-0.0103,-0.0119,0,0,-0.0109,-0.011,0,0,0,0,0,0,0,0,-0.0085,-0.0084,-0.0064,-0.0063,-0.0062,-0.0056,-0.0085,-0.0082,-0.0054,-0.0058,-0.0054,-0.0053,-0.009,-0.0092,-0.0092,-0.0122,-0.0124,-0.0109,-0.011,-0.0111,-0.0112,0,0,0,0,0,0,0,-0.0086,-0.0085,-0.0066,-0.0064,-0.0063,-0.0066,-0.0064,-0.0085,-0.0077,-0.0058,-0.0057,-0.0055,-0.009,-0.009,-0.0093,-0.0124,-0.0109,-0.0111,-0.0112,-0.0113,-0.0167,-0.0167,0,0,0,0,0,0,-0.0084,-0.0085,-0.0066,-0.0065,-0.0072,-0.0066,-0.0064,-0.006,-0.0076,-0.0077,-0.0055,-0.0054,-0.0087,-0.0091,-0.0095,-0.0119,-0.0111,-0.0113,-0.0114,-0.0167,-0.0167,-0.0168,0,0,0,0,0,0,-0.0085,-0.0082,-0.0066,-0.0074,-0.0072,-0.0065,-0.006,-0.0059,-0.0058,-0.0072,-0.0075,-0.0054,-0.0087,-0.0092,-0.0109,-0.012,-0.0114,-0.0116,-0.0167,-0.0167,-0.0167,-0.0165,0,0,0,0,0,0,-0.0085,-0.0083,-0.0083,-0.0074,-0.0072,-0.0064,-0.006,-0.0059,-0.0056,-0.0055,-0.0073,-0.0077,-0.0087,-0.0106,-0.0111,-0.0123,-0.0117,-0.0166,-0.0167,-0.0167,-0.0165,-0.0165,-0.0165,0,0,0,0,0,-0.0086,-0.0088,-0.0083,-0.0081,-0.0071,-0.0064,-0.0063,-0.0059,-0.0056,-0.0057,-0.0066,-0.0076,-0.0112,-0.0108,-0.0114,-0.0127,-0.0166,-0.0167,-0.0167,-0.0164,-0.0165,-0.0165,0,0,0,0,0,0,-0.0099,-0.0087,-0.0082,-0.0079,-0.0071,-0.0063,-0.0062,-0.0059,-0.0065,-0.0065,-0.0079,-0.0084,-0.0102,-0.0114,-0.0109,-0.0143,-0.0141,-0.0143,-0.0137,-0.0138,-0.0138,-0.0135,-0.0119,0,0,0,0,0,-0.0102,-0.0101,-0.0087,-0.0085,-0.0078,-0.007,-0.0068,-0.0063,-0.0065,-0.0066,-0.0079,-0.0094,-0.0109,-0.0122,-0.0135,-0.0158,-0.0167,-0.017,-0.017,-0.0171,-0.0172,-0.0201,-0.0204,-0.0169,-0.0169,-0.0169,0,0,-0.0106,-0.01,-0.0099,-0.0088,-0.008,-0.0072,-0.0068,-0.0062,-0.0063,-0.0073,-0.0083,-0.0095,-0.0113,-0.0133,-0.0143,-0.0146,-0.0182,-0.0171,-0.0171,-0.0172,-0.0202,-0.0205,-0.0208,-0.017,-0.0169,-0.0169,0,0,-0.0105,-0.0106,-0.0097,-0.0093,-0.008,-0.0077,-0.0074,-0.0066,-0.0069,-0.0078,-0.0085,-0.0101,-0.0125,-0.0141,-0.0152,-0.0165,-0.0179,-0.0171,-0.0178,-0.0206,-0.021,-0.0212,-0.0213,-0.0217,-0.0177,-0.0177,-0.0177,0,-0.0107,-0.0096,-0.0095,-0.0085,-0.0081,-0.0078,-0.0067,-0.0073,-0.0075,-0.008,-0.008,-0.0113,-0.0129,-0.0156,-0.0159,-0.0167,-0.0176,-0.0175,-0.0207,-0.021,-0.0214,-0.0214,-0.0217,-0.0177,-0.0177,-0.0177,-0.0177,0,-0.0098,-0.0088,-0.0083,-0.0071,-0.0072,-0.0063,-0.0066,-0.007,-0.0075,-0.0081,-0.0102,-0.0123,-0.0141,-0.0153,-0.0161,-0.0193,-0.0189,-0.02,-0.0206,-0.0217,-0.0216,-0.022,-0.0177,-0.0177,-0.0177,-0.0177,0,0,-0.0089,-0.0077,-0.0072,-0.006,-0.0062,-0.0056,-0.0067,-0.007,-0.0068,-0.0092,-0.0098,-0.0134,-0.0144,-0.0158,-0.0175,-0.0204,-0.0229,-0.0213,-0.0215,-0.0213,-0.0275,-0.023,-0.0229,-0.0251,-0.0252,-0.0253,-0.026,0,-0.0073,-0.0047,-0.0055,-0.0037,-0.002,-0.0034,-0.0041,-0.0053,-0.0064,-0.0074,-0.0111,-0.012,-0.0148,-0.0149,-0.019,-0.0218,-0.0242,-0.0225,-0.0265,-0.0266,-0.0225,-0.0234,-0.0154,-0.0151,-0.0264,-0.0264,-0.0265,0,-0.0053,-0.0037,-0.0012,-0.0004,0.0002,0.0002,-0.0002,-0.0009,-0.0036,-0.0045,-0.0077,-0.0096,-0.0142,-0.0157,-0.023,-0.022,-0.0246,-0.0271,-0.0272,-0.0235,-0.0229,-0.0162,-0.0154,-0.0212,-0.0271,-0.027,-0.027,0,-0.0028,-0.0008,0.0014,0.0017,0.0023,0.0025,0.0021,0.0003,0.0009,-0.0023,-0.0012,-0.0084,-0.0089,-0.0164,-0.0211,-0.0225,-0.0277,-0.0302,-0.0285,-0.0281,-0.0223,-0.0212,-0.0275,-0.0348,-0.0348,-0.0348,-0.0348,0,-0.0003,0.0015,0.0032,0.0047,0.0069,0.0055,0.0072,0.0059,0.0051,0.0077,0.0009,0.0032,-0.0091,-0.0127,-0.02,-0.0243,-0.027,-0.0283,-0.0285,-0.0217,-0.0206,-0.0261,-0.0309,-0.0348,-0.0348,-0.0348,-0.0348,0,0.0019,0.0033,0.0063,0.008,0.0087,0.0101,0.0117,0.0135,0.0121,0.0154,0.0153,0.0115,0.0077,-0.0029,-0.0124,-0.0194,-0.0272,-0.0264,-0.016,-0.015,-0.0201,-0.0249,-0.029,-0.0321,-0.0262,-0.0261,-0.026,0,0.0029,0.0051,0.0091,0.0118,0.0128,0.0151,0.0175,0.0169,0.0199,0.023,0.026,0.0239,0.0264,0.0135,0.0002,-0.0113,-0.0197,-0.013,-0.0152,-0.019,-0.0248,-0.027,-0.0296,-0.0068,-0.0066,-0.0064,-0.0063,0,0.0049,0.0068,0.0096,0.0155,0.0193,0.0231,0.0269,0.031,0.0329,0.0381,0.0462,0.0491,0.0401,0.0341,0.0172,0.0075,-0.0145,-0.0093,-0.017,-0.0131,-0.0123,-0.0156,-0.0066,-0.0046,-0.0047,-0.0049,-0.0049,-0.005,0.0066,0.0091,0.0141,0.0192,0.0244,0.0315,0.0363,0.0431,0.0515,0.0629,0.0645,0.0746,0.0634,0.0431,0.0275,0.0043,-0.0004,-0.0016,-0.0079,-0.0103,-0.0118,0.0025,0.0063,0.0062,0.0061,0.006,0.0059,0,0.0092,0.0125,0.0174,0.0251,0.0318,0.0335,0.0432,0.0503,0.0639,0.0783,0.0892,0.0955,0.0807,0.0576,0.0266,0.0094,0.0006,-0.0014,-0.0044,-0.0081,0.0024,0.0048,0.013,0.013,0.013,0.013,0.013,0.013,0.0116,0.0166,0.0191,0.0302,0.0358,0.0458,0.0523,0.0649,0.0773,0.0988,0.1115,0.1191,0.1044,0.0533,0.0149,0.0036,-0.011,-0.0087,-0.0217,-0.0156,-0.0161,-0.0167,-0.0156,-0.0118,-0.0119,-0.0262,-0.0263,-0.0265]}],[{"header":{"parameterUnit":"m.s-1","parameterCategory":2,"la1":30.2991,"la2":30.254,"lo1":-89.0895,"lo2":-89.0444,"dy":0.0017,"dx":0.0017,"nx":28,"ny":28,"refTime":"2023-09-28T03:00:00:Z","depth":"2","parameterNumber":2,"parameterNumberName":"U-component_of_CURRENTS"},"data":[0,0,0,0,0,0,0,0,0,0,0,0,0,0,0,0,0,0,0,0,0,0,0,0,0,0,0,0,0,0,0,0,0,0,0,0,0,0,0,0,0,0,0,0,0,0,0,0,0,0,0,0,0,0,0,0,0,0,0.1483,0.1483,0,0.1481,0.1482,0.1482,0.1519,0.152,0.152,0.1521,0.1544,0.1543,0.1543,0,0,0,0,0,0,0,0,0,0,0,0,0,0.1547,0.1546,0.1483,0.1483,0.1483,0.1481,0.1482,0.1482,0.1519,0.152,0.1521,0.1521,0.1544,0.1543,0.1543,0,0,0,0,0,0,0,0,0,0,0,0,0,0.1532,0.1546,0.1483,0.1499,0.15,0.1481,0.1482,0.1482,0.1518,0.152,0.1521,0.1522,0.1544,0.1543,0.1543,0.1519,0,0,0.1543,0.1543,0,0,0,0,0,0,0,0,0.1533,0.153,0.1497,0.1498,0.1499,0.1499,0.1512,0.1495,0.1518,0.1514,0.1521,0.1522,0.1529,0.153,0.153,0.152,0.1521,0.1543,0.1543,0.1542,0.1542,0,0,0,0,0,0,0,0.1534,0.153,0.1485,0.1497,0.1498,0.1516,0.1515,0.1509,0.1517,0.1515,0.1517,0.1512,0.153,0.153,0.1531,0.1521,0.1543,0.1542,0.1542,0.1542,0.1597,0.1598,0,0,0,0,0,0,0.1526,0.1531,0.1485,0.1485,0.1517,0.1514,0.1513,0.15,0.1517,0.1519,0.1511,0.1514,0.153,0.1531,0.1532,0.1574,0.1542,0.1542,0.1542,0.1595,0.1597,0.1599,0,0,0,0,0,0,0.1527,0.1521,0.1485,0.1507,0.1503,0.1511,0.1497,0.1499,0.1514,0.1513,0.1518,0.1524,0.1531,0.1532,0.1539,0.1573,0.1542,0.1542,0.1593,0.1596,0.1598,0.1614,0,0,0,0,0,0,0.1529,0.1522,0.1517,0.1506,0.1501,0.1497,0.1495,0.1498,0.1507,0.1512,0.1525,0.1528,0.1532,0.154,0.1539,0.1572,0.1542,0.1591,0.1594,0.1597,0.1611,0.1616,0.1621,0,0,0,0,0,0.1531,0.1532,0.1517,0.1512,0.1492,0.1497,0.1498,0.1509,0.1507,0.1524,0.1524,0.1529,0.156,0.1539,0.1539,0.1572,0.159,0.1593,0.1597,0.1609,0.1615,0.162,0,0,0,0,0,0,0.157,0.1535,0.1519,0.1511,0.1508,0.1503,0.1516,0.1512,0.1523,0.1526,0.1526,0.1528,0.1557,0.1558,0.1536,0.1601,0.1585,0.1588,0.1594,0.16,0.1605,0.1589,0.1542,0,0,0,0,0,0.1567,0.1555,0.1531,0.1528,0.1525,0.1516,0.1519,0.1522,0.1523,0.153,0.1535,0.1549,0.1568,0.1577,0.1592,0.1606,0.1595,0.1637,0.1642,0.1645,0.1635,0.1619,0.162,0.161,0.161,0.161,0,0,0.158,0.156,0.1553,0.1534,0.153,0.1535,0.1524,0.1532,0.1546,0.1528,0.1554,0.1559,0.1575,0.1605,0.1619,0.161,0.1652,0.165,0.1653,0.164,0.1622,0.1623,0.1623,0.1613,0.1612,0.1612,0,0,0.1599,0.1581,0.1573,0.157,0.1559,0.156,0.1563,0.1557,0.1571,0.1578,0.1583,0.1594,0.1619,0.1634,0.1645,0.168,0.1676,0.1709,0.1715,0.17,0.17,0.1699,0.1717,0.1718,0.1711,0.1711,0.1711,0,0.1608,0.1591,0.1579,0.1574,0.158,0.1572,0.158,0.1591,0.1592,0.1593,0.1597,0.1617,0.1633,0.1656,0.1682,0.1689,0.1688,0.1688,0.1702,0.1701,0.17,0.1719,0.1719,0.1712,0.1712,0.1712,0.1712,0,0.1605,0.1606,0.161,0.1596,0.1614,0.1618,0.1627,0.1638,0.1644,0.1641,0.1658,0.1662,0.1671,0.1695,0.17,0.1717,0.1723,0.1706,0.1678,0.1701,0.1721,0.1721,0.1714,0.1714,0.1713,0.1713,0,0,0.1576,0.1597,0.1594,0.1604,0.1621,0.1631,0.1664,0.1676,0.1675,0.1685,0.1686,0.172,0.1702,0.1714,0.1722,0.1714,0.1726,0.1712,0.1711,0.1714,0.1716,0.1767,0.1772,0.1704,0.1704,0.1703,0.1743,0,0.1568,0.1566,0.1591,0.1621,0.1629,0.1654,0.168,0.1696,0.1706,0.1707,0.1708,0.1716,0.1719,0.1721,0.1714,0.1723,0.1722,0.1718,0.1707,0.1707,0.1734,0.1772,0.1575,0.1597,0.1743,0.1743,0.1743,0,0.1557,0.155,0.1571,0.1622,0.1626,0.1651,0.168,0.1701,0.1709,0.1712,0.171,0.1712,0.1726,0.1712,0.1719,0.1717,0.1718,0.1717,0.1717,0.1751,0.1757,0.1593,0.1591,0.1743,0.1743,0.1743,0.1743,0,0.1532,0.1558,0.1577,0.1585,0.1624,0.1646,0.1669,0.1691,0.1705,0.1711,0.1712,0.1716,0.1723,0.1714,0.1752,0.1725,0.176,0.1718,0.1763,0.1768,0.1591,0.1582,0.1703,0.1703,0.1703,0.1702,0.1702,0,0.1524,0.1543,0.1561,0.1555,0.1577,0.1622,0.1647,0.1659,0.1678,0.1694,0.1705,0.1728,0.1719,0.1753,0.1759,0.1794,0.1771,0.1772,0.1777,0.16,0.1591,0.17,0.17,0.1704,0.1704,0.1703,0.1703,0,0.1532,0.1536,0.155,0.156,0.1573,0.1587,0.1641,0.1647,0.1665,0.1688,0.1696,0.1738,0.1798,0.182,0.1833,0.1815,0.1836,0.1851,0.1676,0.1661,0.1844,0.1844,0.1871,0.1873,0.1875,0.1876,0.1877,0,0.154,0.1543,0.154,0.1539,0.1553,0.158,0.1598,0.1633,0.1649,0.171,0.1721,0.1794,0.1833,0.1901,0.1881,0.1898,0.1935,0.1744,0.165,0.1857,0.1859,0.1856,0.1854,0.1425,0.1422,0.142,0.1418,0,0.1544,0.1543,0.1532,0.1518,0.1534,0.1563,0.1593,0.1603,0.1651,0.1666,0.1725,0.1762,0.1827,0.1763,0.1809,0.1793,0.1724,0.1706,0.1932,0.1443,0.1447,0.1447,0.1456,0.1399,0.1401,0.1403,0.1404,0.1404,0.1535,0.1527,0.1501,0.1501,0.1513,0.1533,0.1532,0.157,0.1589,0.157,0.1658,0.1625,0.1629,0.1595,0.1581,0.1571,0.1682,0.157,0.157,0.1574,0.1545,0.1555,0.1524,0.1526,0.1528,0.153,0.1532,0,0.1501,0.1497,0.149,0.1461,0.1448,0.1491,0.1514,0.148,0.1477,0.1467,0.1459,0.1305,0.1268,0.1321,0.1247,0.1266,0.118,0.1242,0.1083,0.1104,0.1122,0.1064,0.0918,0.0916,0.0915,0.0913,0,0,0.147,0.1439,0.1433,0.1389,0.1391,0.1374,0.1377,0.1337,0.1304,0.1199,0.1135,0.1142,0.1225,0.1018,0.1016,0.0955,0.1013,0.092,0.1407,0.1236,0.1252,0.131,0.1247,0,0,0,0,0]},{"header":{"parameterUnit":"m.s-1","parameterCategory":2,"la1":30.2991,"la2":30.254,"lo1":-89.0895,"lo2":-89.0444,"dy":0.0017,"dx":0.0017,"nx":28,"ny":28,"refTime":"2023-09-28T03:00:00:Z","depth":"2","parameterNumber":3,"parameterNumberName":"V-component_of_CURRENTS"},"data":[0,0,0,0,0,0,0,0,0,0,0,0,0,0,0,0,0,0,0,0,0,0,0,0,0,0,0,0,0,0,0,0,0,0,0,0,0,0,0,0,0,0,0,0,0,0,0,0,0,0,0,0,0,0,0,0,0,0,0.0021,0.0021,0,0.0028,0.0028,0.0027,0.0005,0.0004,0.0004,0.0003,-0.0056,-0.0058,-0.0059,0,0,0,0,0,0,0,0,0,0,0,0,0,-0.0028,-0.0027,0.0021,0.0021,0.0021,0.0028,0.0028,0.0027,0.0005,0.0004,0.0004,0.0003,-0.0056,-0.0057,-0.0059,0,0,0,0,0,0,0,0,0,0,0,0,0,-0.0016,-0.0027,0.0021,0.0013,0.0013,0.0028,0.0028,0.0027,0.0005,0.0004,0.0004,0.0003,-0.0056,-0.0057,-0.0059,-0.0058,0,0,-0.0065,-0.0065,0,0,0,0,0,0,0,0,-0.0016,-0.0014,0.0014,0.0014,0.0013,0.0017,-0.0011,-0.0003,0.0005,0.0005,0.0003,0.0003,-0.0035,-0.0039,-0.004,-0.0061,-0.0063,-0.0065,-0.0066,-0.0067,-0.0067,0,0,0,0,0,0,0,-0.0017,-0.0015,0.002,0.0014,0.0014,0.0004,0.0005,-0.001,-0.0016,0.0005,0.0004,0.001,-0.0037,-0.0038,-0.0041,-0.0064,-0.0065,-0.0066,-0.0067,-0.0068,-0.0151,-0.0152,0,0,0,0,0,0,-0.001,-0.0015,0.002,0.0021,0.0,0.0006,0.0007,0.0014,-0.0014,-0.0018,0.001,0.0009,-0.0034,-0.0039,-0.0044,-0.0087,-0.0067,-0.0068,-0.0069,-0.0149,-0.0151,-0.0152,0,0,0,0,0,0,-0.0011,-0.0007,0.002,0.0005,0.0008,0.0008,0.0016,0.0015,0.0007,-0.0009,-0.0014,0.0004,-0.0035,-0.0041,-0.0051,-0.0088,-0.0069,-0.0071,-0.0148,-0.015,-0.0151,-0.0147,0,0,0,0,0,0,-0.0012,-0.0007,-0.0006,0.0006,0.001,0.0022,0.0017,0.0015,0.0014,0.0011,-0.0016,-0.0021,-0.0036,-0.0048,-0.0053,-0.0091,-0.0072,-0.0147,-0.0149,-0.0151,-0.0146,-0.0149,-0.0151,0,0,0,0,0,-0.0014,-0.0012,-0.0006,-0.0002,0.0013,0.0022,0.0023,0.0018,0.0014,0.0009,0.0001,-0.0021,-0.0067,-0.0049,-0.0055,-0.0094,-0.0146,-0.0148,-0.0151,-0.0145,-0.0148,-0.0151,0,0,0,0,0,0,-0.0044,-0.0013,-0.0007,0.0002,0.001,0.0019,0.0017,0.0017,0.0008,0.0004,-0.0013,-0.0019,-0.005,-0.0066,-0.0047,-0.0126,-0.0119,-0.0123,-0.0113,-0.0116,-0.0119,-0.0109,-0.0074,0,0,0,0,0,-0.0045,-0.0032,-0.0009,-0.0007,0.0003,0.001,0.0012,0.0012,0.0012,0.0007,-0.0006,-0.0032,-0.0064,-0.0082,-0.0104,-0.0132,-0.0137,-0.017,-0.0172,-0.0174,-0.0171,-0.0199,-0.0203,-0.016,-0.016,-0.016,0,0,-0.006,-0.0039,-0.0035,-0.0011,-0.0004,0.0001,0.0008,0.0013,0.0002,0.0002,-0.0017,-0.0033,-0.007,-0.0105,-0.0124,-0.0124,-0.0187,-0.0177,-0.0178,-0.0174,-0.0202,-0.0206,-0.021,-0.0162,-0.0161,-0.0161,0,0,-0.0067,-0.0058,-0.004,-0.003,-0.0009,-0.0011,-0.0008,0.0005,-0.0004,-0.0012,-0.0028,-0.0049,-0.009,-0.0121,-0.0146,-0.0173,-0.0193,-0.0202,-0.0212,-0.0239,-0.0242,-0.0245,-0.0244,-0.0247,-0.021,-0.021,-0.021,0,-0.0076,-0.0054,-0.004,-0.0019,-0.0018,-0.0016,-0.001,-0.002,-0.0016,-0.0021,-0.0022,-0.0075,-0.0101,-0.0153,-0.0169,-0.018,-0.0188,-0.0194,-0.024,-0.0244,-0.0247,-0.0245,-0.0248,-0.021,-0.021,-0.021,-0.021,0,-0.0059,-0.0049,-0.0042,-0.0018,-0.0027,-0.0018,-0.0026,-0.0031,-0.0042,-0.0048,-0.0081,-0.0103,-0.0133,-0.0163,-0.0175,-0.0226,-0.0221,-0.0232,-0.0227,-0.025,-0.0247,-0.0251,-0.021,-0.021,-0.021,-0.021,0,0,-0.0042,-0.0026,-0.002,-0.0017,-0.0021,-0.0021,-0.0048,-0.0058,-0.006,-0.0083,-0.0093,-0.0155,-0.0155,-0.0182,-0.0207,-0.0238,-0.0264,-0.0248,-0.0249,-0.0235,-0.0307,-0.0251,-0.0249,-0.0286,-0.0287,-0.0288,-0.029,0,-0.0022,0.0017,0.0003,-0.0001,0.0011,-0.0014,-0.0035,-0.0057,-0.0072,-0.0079,-0.0123,-0.014,-0.0171,-0.0176,-0.0218,-0.025,-0.0275,-0.026,-0.0296,-0.0297,-0.0235,-0.0252,-0.023,-0.0226,-0.0293,-0.0294,-0.0294,0,0.0002,0.0032,0.0047,0.0026,0.0028,0.001,-0.0014,-0.003,-0.0058,-0.0065,-0.0098,-0.0117,-0.017,-0.0182,-0.026,-0.0251,-0.0278,-0.0302,-0.0303,-0.0254,-0.0247,-0.0218,-0.0229,-0.03,-0.03,-0.0299,-0.0299,0,0.0028,0.0042,0.0054,0.0054,0.0041,0.0027,0.001,-0.0018,-0.0017,-0.0047,-0.0032,-0.0108,-0.0114,-0.0189,-0.0237,-0.0253,-0.0302,-0.0329,-0.0302,-0.0297,-0.0286,-0.0278,-0.0374,-0.0374,-0.0374,-0.0374,-0.0374,0,0.0054,0.0059,0.0072,0.0092,0.0094,0.0059,0.0056,0.004,0.0028,0.0051,-0.0015,0.0007,-0.0115,-0.0151,-0.0224,-0.0261,-0.0293,-0.0298,-0.0298,-0.0282,-0.0274,-0.0349,-0.0346,-0.0374,-0.0374,-0.0374,-0.0374,0,0.0057,0.0078,0.0093,0.0107,0.0108,0.0106,0.0098,0.0109,0.0096,0.0128,0.0127,0.009,0.0053,-0.0051,-0.0146,-0.0208,-0.0271,-0.0272,-0.0225,-0.022,-0.0253,-0.025,-0.0257,-0.0255,-0.0254,-0.0252,-0.0251,0,0.0055,0.0073,0.0114,0.0138,0.0141,0.0145,0.0158,0.0144,0.0169,0.0202,0.0232,0.0213,0.0235,0.0115,-0.0018,-0.0128,-0.0185,-0.0177,-0.0208,-0.0243,-0.0243,-0.0243,-0.0242,-0.0191,-0.019,-0.0189,-0.0188,0,0.0055,0.0072,0.0109,0.0171,0.0194,0.0216,0.0241,0.0279,0.0291,0.0346,0.0429,0.0456,0.0365,0.0269,0.011,0.0023,-0.0168,-0.0151,-0.0217,-0.0212,-0.0178,-0.0179,-0.0182,-0.0177,-0.0178,-0.0179,-0.0179,-0.018,0.0056,0.0082,0.0146,0.019,0.0233,0.0291,0.033,0.0387,0.0466,0.0559,0.0578,0.0619,0.0488,0.0305,0.0165,-0.0019,-0.0028,-0.0113,-0.0119,-0.0125,-0.0105,-0.0069,-0.0042,-0.0042,-0.0043,-0.0043,-0.0043,0,0.0071,0.0109,0.0159,0.0239,0.0295,0.0304,0.0389,0.0452,0.0582,0.0653,0.0738,0.064,0.055,0.0372,0.0138,0.0017,-0.0034,-0.0048,-0.0092,-0.01,-0.0109,-0.0091,-0.0022,-0.0023,-0.0023,-0.0024,0,0,0.0094,0.0151,0.0182,0.0281,0.033,0.041,0.0469,0.0585,0.0656,0.0754,0.0769,0.0779,0.0593,0.0423,0.0247,0.0112,0.0026,0.0077,0.0077,0.0038,0.0031,-0.0125,-0.0103,0,0,0,0,0]}],[{"header":{"parameterUnit":"m.s-1","parameterCategory":2,"la1":30.2991,"la2":30.254,"lo1":-89.0895,"lo2":-89.0444,"dy":0.0017,"dx":0.0017,"nx":28,"ny":28,"refTime":"2023-09-28T03:00:00:Z","depth":"4","parameterNumber":2,"parameterNumberName":"U-component_of_CURRENTS"},"data":[0,0,0,0,0,0,0,0,0,0,0,0,0,0,0,0,0,0,0,0,0,0,0,0,0,0,0,0,0,0,0,0,0,0,0,0,0,0,0,0,0,0,0,0,0,0,0,0,0,0,0,0,0,0,0,0,0,0,0.0553,0.0553,0,0.0597,0.0597,0.0598,0.0622,0.0622,0.0623,0.0623,0.0673,0.0673,0.0674,0,0,0,0,0,0,0,0,0,0,0,0,0,0.0469,0.047,0.0552,0.0553,0.0554,0.0597,0.0598,0.0598,0.0622,0.0622,0.0623,0.0623,0.0672,0.0673,0.0674,0,0,0,0,0,0,0,0,0,0,0,0,0,0.0505,0.0471,0.0552,0.0574,0.0577,0.0597,0.0598,0.0598,0.0622,0.0622,0.0623,0.0624,0.0672,0.0673,0.0675,0.0671,0,0,0.0679,0.068,0,0,0,0,0,0,0,0,0.0503,0.0508,0.057,0.0573,0.0576,0.0608,0.0587,0.0624,0.0622,0.0601,0.0623,0.0624,0.0653,0.0656,0.0658,0.0673,0.0676,0.0679,0.068,0.0681,0.0681,0,0,0,0,0,0,0,0.0501,0.0506,0.0566,0.0571,0.0575,0.0576,0.0581,0.0593,0.062,0.0603,0.0605,0.0616,0.0655,0.0657,0.0659,0.0676,0.0679,0.068,0.0681,0.0682,0.0729,0.0729,0,0,0,0,0,0,0.0503,0.0504,0.0565,0.0568,0.0545,0.0577,0.0583,0.0594,0.062,0.0626,0.0616,0.0617,0.0654,0.0658,0.0661,0.0697,0.0681,0.0682,0.0683,0.0728,0.0729,0.0729,0,0,0,0,0,0,0.0501,0.0508,0.0563,0.054,0.0547,0.0579,0.059,0.0595,0.0614,0.0631,0.0636,0.0634,0.0654,0.0659,0.0689,0.0697,0.0682,0.0684,0.0728,0.0729,0.0729,0.0743,0,0,0,0,0,0,0.0499,0.0507,0.052,0.054,0.0549,0.0576,0.059,0.0595,0.0621,0.0624,0.0647,0.0652,0.0655,0.0687,0.069,0.0699,0.0685,0.0727,0.0728,0.0729,0.0742,0.0744,0.0746,0,0,0,0,0,0.0495,0.0492,0.052,0.0528,0.0564,0.0576,0.058,0.0601,0.0622,0.0623,0.0651,0.0652,0.0694,0.0689,0.0693,0.0702,0.0727,0.0728,0.0729,0.0741,0.0744,0.0746,0,0,0,0,0,0,0.0451,0.0496,0.0526,0.0536,0.0563,0.0582,0.0589,0.0611,0.0633,0.0646,0.0662,0.0667,0.0693,0.0697,0.0691,0.0717,0.0709,0.071,0.0717,0.0719,0.0721,0.071,0.0686,0,0,0,0,0,0.0454,0.0455,0.0512,0.0508,0.0539,0.0573,0.0585,0.0604,0.0627,0.0638,0.0662,0.0683,0.0696,0.0709,0.072,0.0739,0.0751,0.0745,0.0747,0.0749,0.0743,0.0778,0.0783,0.0732,0.0732,0.0732,0,0,0.0439,0.0452,0.0461,0.0498,0.0527,0.0561,0.058,0.0602,0.0618,0.064,0.0673,0.0692,0.0703,0.0722,0.0733,0.073,0.0771,0.075,0.0751,0.0744,0.078,0.0785,0.0789,0.0733,0.0733,0.0733,0,0,0.0399,0.0429,0.0442,0.0468,0.0517,0.0542,0.0557,0.0607,0.0624,0.0654,0.0677,0.0702,0.0727,0.0736,0.0742,0.076,0.0779,0.077,0.0774,0.0809,0.0813,0.0817,0.0846,0.0852,0.0772,0.0772,0.0772,0,0.0401,0.0407,0.0442,0.0465,0.0483,0.0541,0.0569,0.0593,0.0637,0.0653,0.0664,0.0714,0.0726,0.0747,0.0755,0.0762,0.0791,0.0765,0.0812,0.0816,0.082,0.0848,0.0855,0.0773,0.0773,0.0773,0.0773,0,0.0392,0.04,0.0403,0.0458,0.0478,0.0498,0.0557,0.0587,0.0622,0.0648,0.0685,0.071,0.0739,0.0747,0.0757,0.0793,0.0808,0.081,0.0806,0.0826,0.0854,0.0861,0.0774,0.0774,0.0774,0.0773,0,0,0.0416,0.0409,0.0419,0.0427,0.0478,0.0497,0.0527,0.0576,0.0603,0.0647,0.068,0.0703,0.0737,0.0746,0.0772,0.08,0.0854,0.0824,0.0825,0.0852,0.0943,0.0868,0.0868,0.088,0.0881,0.0882,0.0954,0,0.0422,0.0431,0.0427,0.0442,0.0467,0.0501,0.0518,0.0559,0.0596,0.0646,0.0683,0.0731,0.0732,0.077,0.0792,0.0848,0.0873,0.0834,0.0919,0.0921,0.0852,0.0874,0.0885,0.0959,0.0961,0.0962,0.0963,0,0.0446,0.0439,0.045,0.043,0.0453,0.0466,0.051,0.0541,0.0607,0.0641,0.0692,0.0737,0.0799,0.08,0.088,0.0866,0.09,0.093,0.0934,0.086,0.0858,0.0934,0.0975,0.0974,0.0973,0.0973,0.0972,0,0.0456,0.0454,0.0448,0.0452,0.0462,0.0467,0.0494,0.0544,0.0576,0.0671,0.0728,0.0774,0.0855,0.0884,0.0939,0.0932,0.1022,0.1018,0.0974,0.0969,0.101,0.1005,0.1061,0.1061,0.1061,0.106,0.106,0,0.0457,0.0453,0.045,0.0458,0.0461,0.0477,0.0506,0.0543,0.0605,0.0668,0.0751,0.0806,0.089,0.0948,0.0959,0.0985,0.1039,0.0972,0.0981,0.1015,0.1009,0.1016,0.101,0.1063,0.1062,0.1062,0.1061,0,0.0448,0.0449,0.0444,0.0455,0.0461,0.0478,0.0516,0.0527,0.0628,0.0722,0.0772,0.0871,0.0949,0.0993,0.1059,0.1034,0.1046,0.1039,0.1074,0.1084,0.0966,0.096,0.0999,0.0997,0.0995,0.0993,0.0992,0,0.0438,0.0434,0.0455,0.0457,0.0455,0.0484,0.0485,0.0539,0.0563,0.0746,0.0779,0.0905,0.0966,0.0987,0.1027,0.1035,0.1021,0.1037,0.0985,0.0954,0.0959,0.0956,0.0952,0.0989,0.0989,0.0988,0.0988,0,0.0418,0.0429,0.0434,0.0443,0.0437,0.0436,0.0458,0.0463,0.0563,0.0682,0.0772,0.0834,0.0922,0.0936,0.0965,0.0961,0.1026,0.1018,0.1021,0.0973,0.0943,0.0949,0.0948,0.0982,0.0983,0.0983,0.0984,0,0.0419,0.041,0.0422,0.0418,0.0421,0.0383,0.0386,0.0409,0.0444,0.0637,0.0657,0.0798,0.0901,0.0899,0.0907,0.0912,0.0897,0.0875,0.0885,0.0893,0.0823,0.0768,0.076,0,0,0,0,0,0.0413,0.0392,0.0391,0.0377,0.0373,0.0369,0.0368,0.0371,0.0475,0.051,0.0584,0.0656,0.0732,0.0768,0.0749,0.0844,0.088,0.082,0.0854,0.0948,0.0955,0.0882,0,0,0,0,0,0,0.0412,0.0405,0.0383,0.0346,0.0333,0.0301,0.0288,0.033,0.0339,0.0475,0.0484,0.0641,0.0671,0.0752,0.0755,0.0771,0.0779,0.0898,0.0897,0.0944,0.095,0.0956,0.0883,0,0,0,0,0]},{"header":{"parameterUnit":"m.s-1","parameterCategory":2,"la1":30.2991,"la2":30.254,"lo1":-89.0895,"lo2":-89.0444,"dy":0.0017,"dx":0.0017,"nx":28,"ny":28,"refTime":"2023-09-28T03:00:00:Z","depth":"4","parameterNumber":3,"parameterNumberName":"V-component_of_CURRENTS"},"data":[0,0,0,0,0,0,0,0,0,0,0,0,0,0,0,0,0,0,0,0,0,0,0,0,0,0,0,0,0,0,0,0,0,0,0,0,0,0,0,0,0,0,0,0,0,0,0,0,0,0,0,0,0,0,0,0,0,0,0.0258,0.0258,0,0.0249,0.0249,0.0249,0.0236,0.0236,0.0236,0.0235,0.0237,0.0237,0.0237,0,0,0,0,0,0,0,0,0,0,0,0,0,0.0276,0.0276,0.0259,0.0258,0.0258,0.0249,0.0249,0.0249,0.0236,0.0236,0.0236,0.0235,0.0237,0.0237,0.0237,0,0,0,0,0,0,0,0,0,0,0,0,0,0.0268,0.0276,0.0259,0.0251,0.025,0.0249,0.0249,0.0249,0.0236,0.0236,0.0236,0.0235,0.0237,0.0237,0.0237,0.0246,0,0,0.0238,0.0239,0,0,0,0,0,0,0,0,0.0268,0.0267,0.0252,0.0251,0.025,0.0243,0.0256,0.0248,0.0236,0.0241,0.0235,0.0235,0.024,0.024,0.0239,0.0246,0.0246,0.0238,0.0239,0.0239,0.0239,0,0,0,0,0,0,0,0.0269,0.0268,0.0255,0.0252,0.0251,0.0251,0.025,0.0254,0.0243,0.0241,0.024,0.0239,0.024,0.0239,0.0239,0.0246,0.0238,0.0239,0.0239,0.0239,0.0281,0.0282,0,0,0,0,0,0,0.027,0.0268,0.0255,0.0255,0.0259,0.0251,0.0249,0.0246,0.0243,0.0242,0.0239,0.0238,0.0238,0.0239,0.0239,0.0271,0.0239,0.0239,0.0239,0.028,0.0281,0.0282,0,0,0,0,0,0,0.027,0.0269,0.0255,0.0261,0.026,0.0251,0.0248,0.0246,0.0246,0.0241,0.024,0.0241,0.0238,0.0239,0.0246,0.027,0.0239,0.024,0.0279,0.028,0.0281,0.032,0,0,0,0,0,0,0.0271,0.0269,0.0276,0.0261,0.0259,0.0263,0.0248,0.0246,0.0246,0.0245,0.0243,0.0242,0.0238,0.0245,0.0246,0.027,0.024,0.0278,0.0279,0.0281,0.0318,0.0323,0.0327,0,0,0,0,0,0.0271,0.0287,0.0276,0.0275,0.0266,0.0264,0.0263,0.0256,0.0247,0.0254,0.0248,0.0243,0.0257,0.0246,0.0247,0.0271,0.0277,0.0279,0.0281,0.0316,0.0322,0.0327,0,0,0,0,0,0,0.0307,0.0287,0.0275,0.0285,0.0276,0.0262,0.0274,0.0259,0.026,0.0258,0.0249,0.0249,0.0265,0.0262,0.025,0.0289,0.0268,0.0271,0.0295,0.03,0.0305,0.0324,0.024,0,0,0,0,0,0.0315,0.0319,0.0296,0.0308,0.0304,0.0286,0.0287,0.0275,0.0269,0.0268,0.0268,0.027,0.0274,0.0281,0.0284,0.0304,0.0291,0.0322,0.0326,0.033,0.0347,0.0337,0.0342,0.0289,0.0289,0.0288,0,0,0.033,0.0324,0.0324,0.0316,0.0309,0.0312,0.0287,0.0287,0.0296,0.0269,0.0292,0.0283,0.0281,0.0302,0.031,0.0304,0.0337,0.0333,0.0336,0.0351,0.034,0.0345,0.035,0.029,0.029,0.0289,0,0,0.036,0.0357,0.0362,0.0361,0.035,0.034,0.0339,0.0324,0.0326,0.0334,0.032,0.0328,0.0335,0.0344,0.0347,0.038,0.0356,0.038,0.0425,0.0415,0.0419,0.0423,0.0401,0.0403,0.0387,0.0388,0.0388,0,0.0372,0.038,0.0367,0.0376,0.0382,0.0353,0.0361,0.0362,0.0355,0.0365,0.0348,0.0365,0.036,0.039,0.0402,0.0393,0.0374,0.0402,0.042,0.0424,0.0427,0.0404,0.0405,0.039,0.0389,0.0389,0.0389,0,0.0398,0.041,0.042,0.0418,0.0427,0.0431,0.0424,0.0435,0.0427,0.0425,0.0446,0.0435,0.0449,0.0447,0.0435,0.0463,0.0437,0.042,0.0405,0.0434,0.0409,0.0409,0.0393,0.0392,0.0391,0.0391,0,0,0.0389,0.0425,0.0425,0.044,0.0447,0.0453,0.0482,0.0493,0.0512,0.0509,0.0536,0.0544,0.0533,0.0537,0.0522,0.0518,0.0516,0.0484,0.0482,0.0461,0.0482,0.0417,0.041,0.0495,0.0496,0.0496,0.0451,0,0.0401,0.0429,0.0449,0.0484,0.0493,0.0505,0.0538,0.0553,0.0558,0.0581,0.0577,0.0594,0.0569,0.0573,0.0568,0.0527,0.0521,0.053,0.046,0.0458,0.0394,0.0411,0.0498,0.0451,0.0451,0.0451,0.0451,0,0.0406,0.0426,0.0458,0.0515,0.0522,0.0547,0.059,0.062,0.0651,0.0657,0.0674,0.0662,0.0672,0.0637,0.0598,0.06,0.0555,0.0518,0.0515,0.0445,0.0394,0.0419,0.0452,0.0452,0.0452,0.0452,0.0452,0,0.039,0.0435,0.0464,0.048,0.0533,0.0564,0.0601,0.0641,0.0678,0.0711,0.072,0.0726,0.0717,0.0678,0.0602,0.0601,0.0537,0.0523,0.0425,0.0419,0.0474,0.047,0.0502,0.0502,0.0502,0.0502,0.0502,0,0.0391,0.0422,0.0461,0.0476,0.0522,0.0571,0.0637,0.0663,0.0721,0.0753,0.0761,0.0758,0.0724,0.0677,0.0618,0.0514,0.0548,0.0439,0.0408,0.0489,0.0488,0.0473,0.047,0.05,0.0501,0.0501,0.0501,0,0.0385,0.041,0.0443,0.0493,0.0517,0.0554,0.0661,0.0707,0.0751,0.0789,0.0801,0.0787,0.0715,0.066,0.0579,0.0518,0.0438,0.0392,0.0478,0.045,0.0326,0.0326,0.0293,0.029,0.0288,0.0286,0.0285,0,0.0391,0.0404,0.0441,0.046,0.0489,0.0565,0.0621,0.0709,0.0752,0.0785,0.0784,0.0743,0.0712,0.0549,0.0497,0.0385,0.0362,0.0327,0.0343,0.0334,0.0307,0.031,0.0313,0.0281,0.0281,0.028,0.0279,0,0.0398,0.0403,0.0419,0.0442,0.0492,0.0567,0.0645,0.0673,0.0757,0.0798,0.0747,0.0684,0.0594,0.0503,0.0415,0.0336,0.0359,0.0304,0.0309,0.0324,0.0319,0.0295,0.0301,0.0272,0.0273,0.0274,0.0274,0,0.0391,0.0395,0.0399,0.0428,0.0485,0.0535,0.0591,0.0635,0.0689,0.072,0.0693,0.0623,0.0605,0.0474,0.0391,0.031,0.0292,0.027,0.0276,0.0284,0.0293,0.0287,0.0208,0,0,0,0,0,0.0379,0.0382,0.0395,0.0416,0.047,0.0508,0.059,0.0646,0.0713,0.0664,0.0684,0.0597,0.0469,0.0427,0.0329,0.035,0.0282,0.0233,0.026,0.023,0.0238,0.0244,0,0,0,0,0,0,0.0369,0.0378,0.0379,0.0407,0.0423,0.0492,0.0542,0.0582,0.0567,0.0607,0.054,0.0551,0.0431,0.051,0.0315,0.0297,0.0296,0.0196,0.0194,0.0225,0.0233,0.024,0.0249,0,0,0,0,0]}]]